Location: Arleux
(50.3632°N, 2.8721°E)
Time: 04:31:56
(UTC+00:00)

Sich 1 Rocket - Pass Details

Date: 15 December 2019
Orbit: 616 x 652 km, 82.5° (Epoch: 24 January)

Event Time Altitude Azimuth Distance (km) Brightness Sun altitude
Rises 06:45:36 0° 189° (S) 2,935 7.3 -8.5°
Reaches altitude 10° 06:47:51 10° 190° (S) 2,025 6.4 -8.1°
Maximum altitude 06:52:21 86° 280° (W) 643 3.6 -7.5°
Drops below altitude 10° 06:56:50 10° 9° (N) 2,019 6.0 -6.9°
Sets 06:59:05 0° 10° (N) 2,926 6.8 -6.6°
